Norwood, MA

1:09 AM EST on January 17, 2017 (GMT -0500)
Norwood Memorial

Weather History for KOWD - February, 2013

Change the Weather History Date:

Tuesday, February 12, 2013

  Actual Average Record
Temperature  
Mean Temperature 37 °F -  
Max Temperature 44 °F 36 °F 59 °F (1999)
Min Temperature 28 °F 18 °F -6 °F (2014)
Degree Days  
Heating Degree Days 28    
Moisture  
Dew Point 28 °F    
Average Humidity 65    
Maximum Humidity 93    
Minimum Humidity 47    
Precipitation  
Precipitation 0.00 in - - ()
Sea Level Pressure  
Sea Level Pressure 29.73 in    
Wind  
Wind Speed 9 mph (West)    
Max Wind Speed 23 mph    
Max Gust Speed 32 mph    
Visibility 10 miles    
Events      
Averages and records for this station are not official NWS values.
T = Trace of Precipitation, MM = Missing Value Source: NWS Daily Summary

Daily Weather History Graph

Daily Weather History Graph

Search for Another Location

Airport or City:

Trip Planner

Search our weather history database for the weather conditions in past years. The results will help you decide how hot, cold, wet, or windy it might be!

Date:

Astronomy

Feb. 12, 2013 Rise Set
Actual Time 6:44 AM EST 5:13 PM EST
Civil Twilight 6:15 AM EST 5:42 PM EST
Nautical Twilight 5:42 AM EST 6:15 PM EST
Astronomical Twilight 5:10 AM EST 6:48 PM EST
Moon 7:36 AM EST (2/12) 8:15 PM EST (2/12)
Length of Visible Light 11h 26m
Length of Day
10h 29m
Waxing Crescent, 7% of the Moon is Illuminated
Feb 12
Waxing Crescent
Feb 17
First Quarter
Feb 25
Full
Mar 4
Last Quarter
Mar 11
New

Hourly Weather History & Observations

Time (EST) Temp. Windchill Dew Point Humidity Pressure Visibility Wind Dir Wind Speed Gust Speed Precip Events Conditions
12:07 AM 42.8 °F 39.3 °F 41.0 °F 93% 29.62 in 10.0 mi West 5.8 mph - N/A   Overcast
12:53 AM 42.1 °F 37.7 °F 39.0 °F 89% 29.62 in 10.0 mi Variable 6.9 mph - N/A   Mostly Cloudy
1:53 AM 41.0 °F 37.1 °F 36.0 °F 82% 29.62 in 10.0 mi WNW 5.8 mph - N/A   Overcast
2:53 AM 39.9 °F 31.1 °F 30.9 °F 70% 29.62 in 10.0 mi WNW 17.3 mph 25.3 mph N/A   Partly Cloudy
3:53 AM 37.9 °F 31.5 °F 27.0 °F 65% 29.64 in 10.0 mi West 9.2 mph 20.7 mph N/A   Clear
4:53 AM 37.0 °F 30.4 °F 27.0 °F 67% 29.66 in 10.0 mi West 9.2 mph - N/A   Clear
5:53 AM 34.0 °F 31.0 °F 27.0 °F 75% 29.66 in 10.0 mi SW 3.5 mph - N/A   Partly Cloudy
6:53 AM 33.1 °F 27.7 °F 28.0 °F 82% 29.67 in 10.0 mi WSW 5.8 mph - N/A   Partly Cloudy
7:53 AM 36.0 °F 32.1 °F 28.0 °F 73% 29.70 in 10.0 mi WSW 4.6 mph - N/A   Mostly Cloudy
8:53 AM 39.0 °F 36.8 °F 28.0 °F 65% 29.70 in 10.0 mi WSW 3.5 mph - N/A   Overcast
9:53 AM 41.0 °F 34.3 °F 27.0 °F 57% 29.70 in 10.0 mi West 11.5 mph - N/A   Mostly Cloudy
10:53 AM 42.1 °F 35.7 °F 25.0 °F 51% 29.70 in 10.0 mi West 11.5 mph 20.7 mph N/A   Overcast
11:53 AM 43.0 °F 35.4 °F 24.1 °F 47% 29.71 in 10.0 mi West 16.1 mph - N/A   Overcast
12:53 PM 44.1 °F 38.1 °F 25.0 °F 47% 29.71 in 10.0 mi WNW 11.5 mph 20.7 mph N/A   Mostly Cloudy
1:53 PM 44.1 °F 35.2 °F 25.0 °F 47% 29.72 in 10.0 mi West 23.0 mph 31.1 mph N/A   Mostly Cloudy
2:53 PM 43.0 °F 35.1 °F 26.1 °F 51% 29.74 in 10.0 mi West 17.3 mph 32.2 mph N/A   Clear
3:53 PM 41.0 °F 33.1 °F 26.1 °F 55% 29.76 in 10.0 mi West 15.0 mph 25.3 mph N/A   Overcast
4:53 PM 41.0 °F 33.5 °F 26.1 °F 55% 29.76 in 10.0 mi West 13.8 mph - N/A   Mostly Cloudy
5:53 PM 39.0 °F 34.8 °F 26.1 °F 60% 29.77 in 10.0 mi West 5.8 mph - N/A   Partly Cloudy
6:53 PM 37.9 °F 32.1 °F 26.1 °F 62% 29.80 in 10.0 mi WSW 8.1 mph - N/A   Mostly Cloudy
7:53 PM 39.0 °F 32.3 °F 26.1 °F 60% 29.87 in 10.0 mi WSW 10.4 mph 19.6 mph N/A   Overcast
8:53 PM 37.9 °F 30.9 °F 26.1 °F 62% 29.89 in 10.0 mi WSW 10.4 mph - N/A   Overcast
9:53 PM 37.0 °F 33.3 °F 24.1 °F 59% 29.85 in 10.0 mi West 4.6 mph - N/A   Mostly Cloudy
10:53 PM 30.9 °F - 24.1 °F 76% 29.83 in 10.0 mi Calm Calm - N/A   Clear
11:53 PM 28.0 °F - 24.1 °F 85% 29.84 in 10.0 mi Calm Calm - N/A   Clear